"Pseudo-MPEC" for C1HDFQ2
Created 2019 Dec 4 2:07:12 UT using Find_Orb
Click here for an explanation of pseudo-MPECs
Astrometry: C1HDFQ2 C2019 12 02.27769 04 19 23.14 +32 18 48.7 ~C27M 20.5 GVNEOCPG96 C1HDFQ2 C2019 12 02.28287 04 19 21.30 +32 18 46.3 ~C27M 21.0 GVNEOCPG96 C1HDFQ2 C2019 12 02.37459 04 18 49.17 +32 18 00.0 ~C29M 20.8 GVNEOCPI52 C1HDFQ2 C2019 12 02.37584 04 18 48.73 +32 17 59.4 ~C29M 20.8 GVNEOCPI52 C1HDFQ2 C2019 12 02.37887 04 18 47.68 +32 17 57.6 ~C29M 21.0 GVNEOCPI52 C1HDFQ2 C2019 12 02.38012 04 18 47.26 +32 17 57.0 ~C29M 21.3 GVNEOCPI52 C1HDFQ2 KC2019 12 03@wTu*s/^92W8gfbF_($@x@xNKud/5)UUP0N:H
AstrometryALYYm
H36 C1HDFQ2 KC2019 12 03FAn+$L%mW
redacted;P-n'B
clickw(x#7(gevj`#@pI;.?jhv7EL
H36 C1HDFQ2 KC2019 12 03VRu]ur?M
herePV/qu,;\.?Xhqv
forQ7A?gX9h
explanationq4Fa
H36 Station data: (G96) Mt. Lemmon Survey (N32.442754 W110.788720) US/Arizona. Observers T. A. Pruyne, B. M. Africano, E. J. Christensen, G. A. Farneth, D. C. Fuls, A. R. Gibbs, A. D. Grauer, H. Gröller, J. A. Johnson, R. A. Kowalski, S. M. Larson, G. J. Leonard, D. Rankin, R. L. Seaman, F. C. Shelly. 1.5-m reflector + 10K CCD. (H36) Sandlot Observatory, Scranton (N38.797693 W95.706400) US/Kansas. Observer G. Hug. 0.56-m reflector + CCD. (I52) Steward Observatory, Mt. Lemmon Station (N32.442547 W110.788920) US/Arizona. Observers T. A. Pruyne, B. M. Africano, E. J. Christensen, G. A. Farneth, D. C. Fuls, A. R. Gibbs, A. D. Grauer, H. Gröller, J. A. Johnson, R. A. Kowalski, S. M. Larson, G. J. Leonard, D. Rankin, R. L. Seaman, F. C. Shelly. 1.0-m reflector + CCD. Orbital elements: C1HDFQ2 Perihelion 2019 Aug 19.471874 +/- 3.09 TT = 11:19:29 (JD 2458714.971874) Epoch 2019 Dec 3.0 TT = JDT 2458820.5 Earth MOID: 0.0040 Ve: 0.0042 M 106.09705042 +/- 4.1 (J2000 ecliptic) AutoNEOCP n 1.00539120 +/- 0.00932 Peri. 248.68458 +/- 0.7 a 0.98683829 +/- 0.0061 Node 47.45070 +/- 1.0 e 0.2880372 +/- 0.0152 Incl. 3.63479 +/- 0.21 P 0.98/358.06d H 24.5 G 0.15 U 9.6 q 0.70259211 +/- 0.0107 Q 1.27108447 +/- 0.0227 From 9 observations 2019 Dec. 2-3 (22.9 hr); mean residual 0".08
Residuals in arcseconds: 191202 G96 .10+ .05- 191202 I52 .07- .11+ 191203 H36 .03- .12+ 191202 G96 .08- .11- 191202 I52 .07- .00 191203 H36 .08+ .12- 191202 I52 .01+ .01+ 191202 I52 .10+ .10+ 191203 H36 .05- .01- Ephemerides (geocentric): Date (UTC) HH RA Dec delta r elong mag " sig PA ---- -- -- -- ------------- ----------- ------ ------ ----- --- ---- --- 2019 12 04 02 04 10 05.246 +32 03 38.16 .15158 1.1345 168.2 21.4 8.65 84 2019 12 04 03 04 09 53.133 +32 03 15.63 .15177 1.1346 168.1 21.4 9.23 83 2019 12 04 04 04 09 41.052 +32 02 53.03 .15195 1.1348 168.1 21.4 9.82 83 2019 12 04 05 04 09 29.005 +32 02 30.38 .15213 1.1349 168.1 21.4 10.4 83 2019 12 04 06 04 09 16.990 +32 02 07.67 .15231 1.1351 168.0 21.4 11.1 83 2019 12 04 07 04 09 05.009 +32 01 44.90 .15249 1.1352 168.0 21.4 11.7 83 2019 12 04 08 04 08 53.061 +32 01 22.07 .15267 1.1354 167.9 21.4 12.4 83 2019 12 04 09 04 08 41.145 +32 00 59.20 .15286 1.1355 167.9 21.4 13.0 83 2019 12 04 10 04 08 29.262 +32 00 36.26 .15304 1.1357 167.9 21.4 13.7 83 2019 12 04 11 04 08 17.412 +32 00 13.27 .15322 1.1359 167.8 21.4 14.4 83 2019 12 04 12 04 08 05.595 +31 59 50.23 .15341 1.1360 167.8 21.4 15.1 83 2019 12 04 13 04 07 53.810 +31 59 27.14 .15359 1.1362 167.7 21.4 15.9 82 2019 12 04 14 04 07 42.058 +31 59 03.99 .15377 1.1363 167.7 21.4 16.6 82 2019 12 04 15 04 07 30.338 +31 58 40.79 .15396 1.1365 167.7 21.4 17.3 82 2019 12 04 16 04 07 18.651 +31 58 17.54 .15414 1.1366 167.6 21.4 18.1 82 2019 12 04 17 04 07 06.997 +31 57 54.24 .15432 1.1368 167.6 21.4 18.9 82 2019 12 04 18 04 06 55.374 +31 57 30.89 .15451 1.1369 167.5 21.5 19.7 82 2019 12 04 19 04 06 43.784 +31 57 07.49 .15469 1.1371 167.5 21.5 20.5 82 2019 12 04 20 04 06 32.227 +31 56 44.05 .15488 1.1372 167.4 21.5 21.3 82 2019 12 04 21 04 06 20.701 +31 56 20.55 .15506 1.1374 167.4 21.5 22.2 82 2019 12 04 22 04 06 09.208 +31 55 57.01 .15525 1.1375 167.4 21.5 23.0 82 2019 12 04 23 04 05 57.747 +31 55 33.42 .15543 1.1377 167.3 21.5 23.9 82 2019 12 05 00 04 05 46.318 +31 55 09.78 .15562 1.1378 167.3 21.5 24.7 82 2019 12 05 01 04 05 34.921 +31 54 46.10 .15580 1.1380 167.2 21.5 25.6 82 2019 12 05 02 04 05 23.555 +31 54 22.37 .15599 1.1381 167.2 21.5 26.5 82 2019 12 05 03 04 05 12.222 +31 53 58.59 .15618 1.1383 167.1 21.5 27.4 82 2019 12 05 04 04 05 00.921 +31 53 34.78 .15636 1.1385 167.1 21.5 28.4 82 2019 12 05 05 04 04 49.651 +31 53 10.92 .15655 1.1386 167.0 21.5 29.3 82 2019 12 05 06 04 04 38.413 +31 52 47.01 .15674 1.1388 167.0 21.5 30.3 81 2019 12 05 07 04 04 27.207 +31 52 23.07 .15692 1.1389 166.9 21.5 31.2 81 2019 12 05 08 04 04 16.032 +31 51 59.08 .15711 1.1391 166.9 21.5 32.2 81 2019 12 05 09 04 04 04.889 +31 51 35.05 .15730 1.1392 166.9 21.5 33.2 81 2019 12 05 10 04 03 53.778 +31 51 10.98 .15748 1.1394 166.8 21.5 34.2 81 2019 12 05 11 04 03 42.698 +31 50 46.87 .15767 1.1395 166.8 21.5 35.2 81 2019 12 05 12 04 03 31.649 +31 50 22.72 .15786 1.1397 166.7 21.5 36.2 81 2019 12 05 13 04 03 20.632 +31 49 58.53 .15805 1.1398 166.7 21.5 37.2 81 2019 12 05 14 04 03 09.646 +31 49 34.30 .15824 1.1400 166.6 21.5 38.3 81 2019 12 05 15 04 02 58.691 +31 49 10.03 .15843 1.1401 166.6 21.5 39.3 81 2019 12 05 16 04 02 47.767 +31 48 45.73 .15861 1.1403 166.5 21.5 40.4 81 2019 12 05 17 04 02 36.875 +31 48 21.39 .15880 1.1404 166.5 21.6 41.5 81 2019 12 05 18 04 02 26.013 +31 47 57.01 .15899 1.1406 166.4 21.6 42.5 81 2019 12 05 19 04 02 15.183 +31 47 32.60 .15918 1.1407 166.4 21.6 43.6 81 2019 12 05 20 04 02 04.383 +31 47 08.15 .15937 1.1409 166.3 21.6 44.7 81 2019 12 05 21 04 01 53.615 +31 46 43.67 .15956 1.1410 166.3 21.6 45.9 81 2019 12 05 22 04 01 42.877 +31 46 19.15 .15975 1.1412 166.2 21.6 47.0 81 2019 12 05 23 04 01 32.170 +31 45 54.59 .15994 1.1413 166.2 21.6 48.1 81 2019 12 06 00 04 01 21.494 +31 45 30.01 .16013 1.1415 166.1 21.6 49.3 81 2019 12 06 01 04 01 10.848 +31 45 05.39 .16032 1.1416 166.1 21.6 50.4 81